Regional Weather Roundup
Issued by NWS

Home | Current Version | Previous Version | Text Only | Print | Product List | Glossary On
Versions: 1 2 3 4 5 6 7 8 9 10 11 12 13 14 15 16 17 18 19 20 21 22 23 24 25 26 27 28 29 30 31 32 33 34 35 36 37 38 39 40 41 42 43 44 45 46 47 48 49 50
000
ASUS46 KPQR 281510
RWROR

OREGON REGIONAL WEATHER ROUNDUP
NATIONAL WEATHER SERVICE PORTLAND OR
800 AM PDT MON JUL 28 2014

NOTE: "FAIR" INDICATES FEW OR NO CLOUDS BELOW 12,000 FEET WITH
NO SIGNIFICANT WEATHER AND/OR OBSTRUCTIONS TO VISIBILITY.

ORZ001>013-281600-
NORTHWEST OREGON


CITY           SKY/WX    TMP DP  RH WIND       PRES   REMARKS
ASTORIA        CLOUDY    57  57 100 CALM      30.12S FOG
NEWPORT        FOG       54  54 100 NW3       30.13S VSB 1/4
PORTLAND       SUNNY     66  56  70 CALM      30.09S
VANCOUVER WA   SUNNY     66  54  65 CALM      30.09R
SCAPPOOSE      SUNNY     69  53  56 N12       30.08R
HILLSBORO      SUNNY     67  53  61 CALM      30.09R
AURORA         SUNNY     67  57  70 CALM      30.09S
MCMINNVILLE    SUNNY     63  57  81 CALM      30.10R
SALEM          SUNNY     70  55  59 N5        30.08S
CORVALLIS      SUNNY     64  57  77 CALM      30.10R
EUGENE         SUNNY     67  59  75 CALM      30.09R
$$

ORZ021-028-281600-
SOUTHWEST OREGON


CITY           SKY/WX    TMP DP  RH WIND       PRES   REMARKS
NORTH BEND     CLOUDY    54  54 100 N3        30.10R VSB 1/2
BROOKINGS      PTSUNNY   57  55  93 CALM      30.04R FOG
ROSEBURG       SUNNY     66  55  67 CALM      30.09R
SEXTON SUMMIT  SUNNY     73  53  49 CALM      30.18R
MEDFORD        SUNNY     71  54  54 CALM      30.08R
$$

ORZ009-041-281600-
COLUMBIA GORGE


CITY           SKY/WX    TMP DP  RH WIND       PRES   REMARKS
TROUTDALE      SUNNY     67  57  70 CALM      30.08R
THE DALLES     SUNNY     71  60  68 NW8       30.03S
$$

ORZ029>031-042>050-061>064-281600-
EASTERN OREGON


CITY           SKY/WX    TMP DP  RH WIND       PRES   REMARKS
REDMOND        SUNNY     66  42  41 SE3       30.17R
BEND           SUNNY     66  45  45 SW7       30.20R
KLAMATH FALLS  SUNNY     62  48  60 CALM      30.22R
LAKEVIEW       SUNNY     64  39  39 N3        30.27R
HERMISTON      MOSUNNY   74  50  42 N5        30.02R
PENDLETON      PTSUNNY   73  44  35 S6        30.06R
JOHN DAY       MOSUNNY   73  43  34 E5        30.19S
MEACHAM        PTSUNNY   64  52  64 CALM      30.20R
LA GRANDE      PTSUNNY   73  43  33 E3        30.12R
BAKER CITY     SUNNY     71  52  50 CALM      30.15R
BURNS          SUNNY     71  42  35 E3        30.20R
ROME             N/A     78  34  20 SW3       30.16R
ONTARIO        MOSUNNY   80  55  42 CALM      30.04R
$$



USA.gov is the U.S. government's official web portal to all federal, state and local government web resources and services.